INTELSAT 33E DEB, 64400

Orbit data source: Space-Track

INTELSAT 33E DEB, 64400 is space debris in GEO originally from a launch on Wed, 24 Aug 2016 UTC launched from the French Guiana (FRGUI). Debris objects in space refer to the collection of defunct objects orbiting the Earth. Examples of debris include non-operational satellites, rocket bodies, and fragments generated from explosions, collisions, or faulty payload assembly.

Not visible in the next 10 days
Identifier
64400, 2016-053AE
Orbit
GEO
Country
Flag of USUS / ITSO
Related business
Manufacturer
Boeing/ES
Mission
Spacecraft
Bus & Motor
Unknown
Mass
Unknown
Launch date (UTC)
2016-08-24 (10 years ago)
Launch vehicle
Unknown
Launch site
French Guiana (FRGUI)
Object type
Payload
Rocket body
Debris
Shape & HBR
Unknown shape, 1.1 m
Radar Cross Section
RCS unknown

Expand to show TLE details & history
Last TLE update: 1 day ago

TLE from 1 day ago
0 INTELSAT 33E DEB
1 64400U 16053AE  26170.60114576 -.00000119  00000-0  00000-0 0  9997
2 64400   1.4907  80.7249 0491729 325.9202  30.3380  1.03349717  6189
Epoch: 2026-06-19T14:25Z
TLE epoch observation values (Epoch: 2026-06-19T14:25:38.993Z)
Latitude
0.00001°
Longitude
-44.25936°
Altitude
33,213.694 km
Speed
3.239 km/s
True Right ascension
05h 19m 55s
True Declination
0° 00' 00"
Sunlit
Object was in daylight at epoch
Visualization orbit readout
Latitude
Unknown
Longitude
Unknown
Altitude
Unknown
Speed
Unknown
Apparent Right ascension
Unknown
Apparent Declination
Unknown
Sunlit
N/A
Visualization observer readout
Local Sidereal Time
07:20:36
Azimuth
Unknown
Elevation
Unknown
Doppler factor
Unknown
Orbital elements
Apogee altitude
36,978.362 km
Perigee altitude
32,914.276 km
Semi-major axis
41,324.456 km
Eccentricity
0.04917
Inclination
1.4907°
RAAN
80.7249°
Arg. of periapsis
325.9202°
True anomaly
33.34181°
Mean anomaly
30.338°
Eccentric anomaly
31.82363°
Mean motion
0.25836 °/min
Orbital period
1,393.38 mins
BSTAR
0
Loading maneuver chart data...
Computing Atmospheric mass density...
Loading historical data...
Loading historical data...
Loading historical data...
Loading historical data...
Loading historical data...
Loading historical data...
Loading historical data...

Documentation

Showing up to 5 results
|